CSN9949 ZLLL-ZLXY

Flight info

Callsign CSN9949
Flight time 0h 48m
Altitude 24600
Route UKBIN9H UKBIN W214 HO HO1Z
Aircraft A20N/M-SDE2E3FGHIRWXY/LB1

Departure

Time 2026-05-03 20:15
Airport Lanzhou Zhongchuan International Airport (ZLLL)

Arrival

Time 2026-05-03 21:04
Airport Xi'an Xianyang International Airport (ZLXY)
Time Latitude Longitude Altitude Speed Heading
2026-05-03 20:15 36.65160 103.71429 10707 ft 282 kts 27°
2026-05-03 20:15 36.67108 103.72776 11546 ft 285 kts 30°
2026-05-03 20:15 36.68702 103.74721 12194 ft 299 kts 61°
2026-05-03 20:15 36.69224 103.77595 12742 ft 315 kts 95°
2026-05-03 20:16 36.68402 103.80471 13464 ft 320 kts 127°
2026-05-03 20:16 36.66743 103.82821 14239 ft 323 kts 132°
2026-05-03 20:16 36.65029 103.85190 15029 ft 327 kts 131°
2026-05-03 20:16 36.63266 103.87475 15752 ft 332 kts 142°
2026-05-03 20:17 36.60979 103.88917 16487 ft 335 kts 168°
2026-05-03 20:17 36.58404 103.89257 17199 ft 337 kts 180°
2026-05-03 20:17 36.55767 103.89275 17913 ft 341 kts 181°
2026-05-03 20:17 36.53081 103.89333 18643 ft 345 kts 179°
2026-05-03 20:18 36.50356 103.89468 19385 ft 348 kts 178°
2026-05-03 20:18 36.47654 103.89638 20078 ft 351 kts 178°
2026-05-03 20:18 36.44845 103.89806 20458 ft 365 kts 178°
2026-05-03 20:18 36.41936 103.89973 20764 ft 379 kts 178°
2026-05-03 20:19 36.38910 103.90149 21064 ft 393 kts 178°
2026-05-03 20:19 36.35792 103.90331 21358 ft 407 kts 178°
2026-05-03 20:19 36.32556 103.90533 21636 ft 419 kts 176°
2026-05-03 20:19 36.29322 103.91573 21932 ft 431 kts 152°
2026-05-03 20:20 36.26725 103.94189 22473 ft 433 kts 128°
2026-05-03 20:20 36.25092 103.97827 23043 ft 433 kts 107°
2026-05-03 20:20 36.24417 104.01926 23621 ft 434 kts 97°
2026-05-03 20:20 36.23901 104.06069 24179 ft 436 kts 97°
2026-05-03 20:21 36.23359 104.10200 24653 ft 440 kts 98°
2026-05-03 20:21 36.22770 104.14413 24742 ft 441 kts 98°
2026-05-03 20:21 36.22158 104.18617 24754 ft 440 kts 98°
2026-05-03 20:21 36.21532 104.22832 24760 ft 440 kts 98°
2026-05-03 20:22 36.20909 104.27011 24762 ft 440 kts 98°
2026-05-03 20:22 36.20209 104.31194 24764 ft 441 kts 103°
2026-05-03 20:22 36.19137 104.35239 24763 ft 443 kts 110°
2026-05-03 20:22 36.17646 104.39124 24765 ft 444 kts 117°
2026-05-03 20:23 36.15905 104.42838 24769 ft 444 kts 119°
2026-05-03 20:23 36.14120 104.46526 24768 ft 445 kts 119°
2026-05-03 20:23 36.12304 104.50275 24768 ft 444 kts 119°
2026-05-03 20:23 36.10530 104.53950 24774 ft 444 kts 119°
2026-05-03 20:24 36.08749 104.57649 24771 ft 445 kts 119°
2026-05-03 20:24 36.06975 104.61342 24765 ft 445 kts 119°
2026-05-03 20:24 36.05183 104.65071 24769 ft 446 kts 120°
2026-05-03 20:24 36.03397 104.68788 24764 ft 446 kts 120°
2026-05-03 20:25 36.01603 104.72516 24761 ft 446 kts 120°
2026-05-03 20:25 35.99818 104.76225 24757 ft 446 kts 120°
2026-05-03 20:25 35.98011 104.79972 24754 ft 446 kts 120°
2026-05-03 20:25 35.96233 104.83655 24751 ft 447 kts 120°
2026-05-03 20:26 35.94439 104.87371 24751 ft 446 kts 119°
2026-05-03 20:26 35.92629 104.91116 24751 ft 446 kts 119°
2026-05-03 20:26 35.90839 104.94811 24749 ft 446 kts 120°
2026-05-03 20:26 35.89053 104.98499 24753 ft 446 kts 119°
2026-05-03 20:27 35.87280 105.02174 24753 ft 446 kts 119°
2026-05-03 20:27 35.85475 105.05917 24750 ft 446 kts 119°
2026-05-03 20:27 35.83705 105.09584 24747 ft 446 kts 119°
2026-05-03 20:27 35.81899 105.13324 24745 ft 447 kts 119°
2026-05-03 20:28 35.80107 105.17027 24746 ft 447 kts 119°
2026-05-03 20:28 35.78317 105.20725 24747 ft 446 kts 119°
2026-05-03 20:28 35.76543 105.24389 24748 ft 445 kts 119°
2026-05-03 20:28 35.74741 105.28105 24748 ft 445 kts 119°
2026-05-03 20:29 35.72974 105.31743 24751 ft 445 kts 119°
2026-05-03 20:29 35.71169 105.35459 24747 ft 445 kts 120°
2026-05-03 20:29 35.69386 105.39122 24744 ft 446 kts 119°
2026-05-03 20:29 35.67571 105.42849 24748 ft 446 kts 119°
2026-05-03 20:30 35.65777 105.46527 24755 ft 446 kts 119°
2026-05-03 20:30 35.63996 105.50176 24752 ft 446 kts 119°
2026-05-03 20:30 35.62207 105.53837 24760 ft 446 kts 120°
2026-05-03 20:30 35.60405 105.57522 24755 ft 446 kts 119°
2026-05-03 20:31 35.58612 105.61186 24759 ft 447 kts 119°
2026-05-03 20:31 35.56813 105.64857 24760 ft 446 kts 120°
2026-05-03 20:31 35.55034 105.68547 24759 ft 445 kts 117°
2026-05-03 20:31 35.53578 105.72388 24764 ft 444 kts 110°
2026-05-03 20:32 35.52533 105.76447 24759 ft 443 kts 102°
2026-05-03 20:32 35.51843 105.80611 24770 ft 443 kts 99°
2026-05-03 20:32 35.51227 105.84833 24764 ft 443 kts 98°
2026-05-03 20:32 35.50626 105.89008 24767 ft 443 kts 98°
2026-05-03 20:33 35.50008 105.93240 24766 ft 443 kts 98°
2026-05-03 20:33 35.49390 105.97418 24773 ft 444 kts 99°
2026-05-03 20:33 35.48763 106.01608 24778 ft 444 kts 99°
2026-05-03 20:33 35.48139 106.05759 24786 ft 444 kts 99°
2026-05-03 20:34 35.47503 106.09965 24799 ft 443 kts 99°
2026-05-03 20:34 35.46872 106.14117 24807 ft 443 kts 99°
2026-05-03 20:34 35.46235 106.18308 24817 ft 443 kts 99°
2026-05-03 20:34 35.45593 106.22515 24823 ft 444 kts 99°
2026-05-03 20:35 35.44955 106.26684 24826 ft 444 kts 99°
2026-05-03 20:35 35.44320 106.30832 24817 ft 445 kts 99°
2026-05-03 20:35 35.43674 106.35044 24810 ft 445 kts 99°
2026-05-03 20:35 35.43034 106.39206 24802 ft 445 kts 99°
2026-05-03 20:36 35.42393 106.43354 24789 ft 445 kts 99°
2026-05-03 20:36 35.41742 106.47561 24779 ft 445 kts 99°
2026-05-03 20:36 35.41090 106.51763 24776 ft 445 kts 99°
2026-05-03 20:36 35.40443 106.55925 24770 ft 444 kts 99°
2026-05-03 20:37 35.39796 106.60075 24765 ft 445 kts 99°
2026-05-03 20:37 35.39144 106.64252 24761 ft 445 kts 99°
2026-05-03 20:37 35.38502 106.68361 24759 ft 445 kts 99°
2026-05-03 20:37 35.37844 106.72555 24751 ft 446 kts 99°
2026-05-03 20:38 35.37189 106.76726 24748 ft 446 kts 99°
2026-05-03 20:38 35.36533 106.80885 24748 ft 445 kts 99°
2026-05-03 20:38 35.35867 106.85096 24746 ft 445 kts 99°
2026-05-03 20:38 35.35207 106.89269 24744 ft 445 kts 99°
2026-05-03 20:39 35.34547 106.93424 24740 ft 446 kts 99°
2026-05-03 20:39 35.33876 106.97646 24739 ft 446 kts 99°
2026-05-03 20:39 35.33206 107.01856 24739 ft 446 kts 99°
2026-05-03 20:39 35.32541 107.06045 24738 ft 446 kts 99°
2026-05-03 20:40 35.31868 107.10261 24737 ft 446 kts 99°
2026-05-03 20:40 35.31210 107.14387 24734 ft 446 kts 99°
2026-05-03 20:40 35.30539 107.18581 24734 ft 446 kts 99°
2026-05-03 20:40 35.29860 107.22813 24733 ft 446 kts 99°
2026-05-03 20:41 35.29194 107.26964 24734 ft 446 kts 99°
2026-05-03 20:41 35.28513 107.31190 24733 ft 445 kts 99°
2026-05-03 20:41 35.27850 107.35309 24729 ft 445 kts 99°
2026-05-03 20:41 35.27170 107.39507 24725 ft 446 kts 99°
2026-05-03 20:42 35.26492 107.43699 24719 ft 446 kts 99°
2026-05-03 20:42 35.25811 107.47886 24717 ft 446 kts 99°
2026-05-03 20:42 35.25126 107.52080 24715 ft 446 kts 99°
2026-05-03 20:42 35.24436 107.56259 24712 ft 446 kts 99°
2026-05-03 20:43 35.23737 107.60445 24714 ft 446 kts 99°
2026-05-03 20:43 35.23042 107.64596 24712 ft 446 kts 99°
2026-05-03 20:43 35.22345 107.68755 24707 ft 446 kts 100°
2026-05-03 20:43 35.21586 107.72911 24702 ft 446 kts 105°
2026-05-03 20:44 35.20297 107.76812 24705 ft 448 kts 117°
2026-05-03 20:44 35.18357 107.80405 24703 ft 449 kts 129°
2026-05-03 20:44 35.16032 107.83603 24704 ft 450 kts 132°
2026-05-03 20:44 35.13628 107.86751 24701 ft 451 kts 133°
2026-05-03 20:45 35.11220 107.89899 24697 ft 451 kts 132°
2026-05-03 20:45 35.08823 107.93056 24693 ft 451 kts 132°
2026-05-03 20:45 35.06469 107.96172 24687 ft 451 kts 132°
2026-05-03 20:45 35.04076 107.99348 24684 ft 451 kts 132°
2026-05-03 20:46 35.01704 108.02499 24680 ft 451 kts 132°
2026-05-03 20:46 34.99325 108.05658 24685 ft 451 kts 131°
2026-05-03 20:46 34.96968 108.08788 24691 ft 449 kts 131°
2026-05-03 20:46 34.94595 108.11938 24692 ft 449 kts 131°
2026-05-03 20:47 34.92241 108.15058 24692 ft 449 kts 131°
2026-05-03 20:47 34.89838 108.18240 24691 ft 450 kts 131°
2026-05-03 20:47 34.87477 108.21350 24689 ft 450 kts 132°
2026-05-03 20:47 34.85092 108.24464 24690 ft 450 kts 132°
2026-05-03 20:48 34.82677 108.27608 24327 ft 447 kts 132°
2026-05-03 20:48 34.80302 108.30703 23265 ft 453 kts 132°
2026-05-03 20:48 34.77886 108.33852 22304 ft 454 kts 132°
2026-05-03 20:48 34.75501 108.36955 21565 ft 451 kts 132°
2026-05-03 20:49 34.73106 108.40068 20867 ft 446 kts 132°
2026-05-03 20:49 34.70764 108.43114 20141 ft 441 kts 132°
2026-05-03 20:49 34.68497 108.46060 19401 ft 424 kts 132°
2026-05-03 20:49 34.66386 108.48802 18679 ft 405 kts 132°
2026-05-03 20:50 34.64416 108.51359 18087 ft 385 kts 132°
2026-05-03 20:50 34.62575 108.53748 17628 ft 366 kts 132°
2026-05-03 20:50 34.60747 108.56118 17220 ft 347 kts 132°
2026-05-03 20:50 34.58979 108.58405 16857 ft 331 kts 132°
2026-05-03 20:51 34.57267 108.60620 16659 ft 320 kts 132°
2026-05-03 20:51 34.55472 108.62621 16441 ft 311 kts 150°
2026-05-03 20:51 34.53209 108.63334 16196 ft 297 kts 186°
2026-05-03 20:51 34.51064 108.62508 15702 ft 288 kts 209°
2026-05-03 20:52 34.49117 108.61317 15249 ft 285 kts 206°
2026-05-03 20:52 34.47102 108.60267 14966 ft 272 kts 209°
2026-05-03 20:52 34.45475 108.58798 14512 ft 260 kts 230°
2026-05-03 20:52 34.44189 108.56983 13995 ft 256 kts 232°
2026-05-03 20:53 34.42956 108.55199 13381 ft 257 kts 232°
2026-05-03 20:53 34.41672 108.53391 12626 ft 261 kts 231°
2026-05-03 20:53 34.40397 108.51628 11900 ft 264 kts 230°
2026-05-03 20:53 34.39066 108.49814 11328 ft 257 kts 229°
2026-05-03 20:54 34.37826 108.48132 10969 ft 245 kts 229°
2026-05-03 20:54 34.35435 108.44827 9912 ft 240 kts 230°
2026-05-03 20:54 34.34238 108.43143 9368 ft 239 kts 230°
2026-05-03 20:55 34.33050 108.41457 8814 ft 237 kts 230°
2026-05-03 20:55 34.31885 108.39795 8290 ft 234 kts 230°
2026-05-03 20:55 34.30727 108.38133 7784 ft 231 kts 230°
2026-05-03 20:55 34.29603 108.36509 7279 ft 228 kts 230°
2026-05-03 20:56 34.28440 108.34922 6757 ft 225 kts 217°
2026-05-03 20:56 34.26872 108.34152 6199 ft 223 kts 180°
2026-05-03 20:56 34.25257 108.34692 5664 ft 222 kts 143°
2026-05-03 20:56 34.24166 108.36276 5181 ft 222 kts 120°
2026-05-03 20:57 34.23398 108.38065 4977 ft 219 kts 116°
2026-05-03 20:57 34.22813 108.39967 4960 ft 221 kts 93°
2026-05-03 20:57 34.23088 108.41897 4977 ft 223 kts 73°
2026-05-03 20:57 34.23655 108.43874 4965 ft 223 kts 72°
2026-05-03 20:58 34.24172 108.45777 4964 ft 223 kts 73°
2026-05-03 20:58 34.24633 108.47675 4960 ft 224 kts 75°
2026-05-03 20:58 34.25091 108.49683 4961 ft 224 kts 73°
2026-05-03 20:58 34.25679 108.51689 4952 ft 224 kts 67°
2026-05-03 20:59 34.26511 108.53527 4954 ft 225 kts 56°
2026-05-03 20:59 34.27605 108.55190 4960 ft 225 kts 49°
2026-05-03 20:59 34.28778 108.56747 4957 ft 225 kts 48°
2026-05-03 20:59 34.29958 108.58315 4948 ft 224 kts 49°
2026-05-03 21:00 34.31102 108.59872 4767 ft 220 kts 49°
2026-05-03 21:00 34.31845 108.60898 4552 ft 212 kts 50°
2026-05-03 21:00 34.33190 108.62766 4240 ft 191 kts 50°
2026-05-03 21:00 34.34141 108.64089 3932 ft 181 kts 50°
2026-05-03 21:01 34.35017 108.65305 3676 ft 169 kts 50°
2026-05-03 21:01 34.35840 108.66447 3423 ft 155 kts 50°
2026-05-03 21:01 34.36543 108.67420 3195 ft 145 kts 51°
2026-05-03 21:01 34.37234 108.68377 3014 ft 144 kts 51°
2026-05-03 21:02 34.37954 108.69374 2820 ft 142 kts 51°
2026-05-03 21:02 34.38672 108.70367 2614 ft 142 kts 51°
2026-05-03 21:02 34.39404 108.71380 2404 ft 141 kts 50°
2026-05-03 21:02 34.40119 108.72369 2191 ft 142 kts 51°
2026-05-03 21:03 34.40839 108.73375 1977 ft 142 kts 50°
2026-05-03 21:03 34.41576 108.74384 1776 ft 142 kts 51°
2026-05-03 21:03 34.42292 108.75377 1604 ft 141 kts 51°
2026-05-03 21:03 34.42931 108.76262 1576 ft 101 kts 48°
2026-05-03 21:04 34.43304 108.76778 1576 ft 43 kts 48°
2026-05-03 21:04 34.43514 108.77020 1576 ft 34 kts 24°
2026-05-03 21:04 34.43654 108.77080 1576 ft 14 kts 358°
2026-05-03 21:04 34.43682 108.76979 1576 ft 14 kts 230°
2026-05-03 21:05 34.43607 108.76877 1576 ft 15 kts 229°
2026-05-03 21:05 34.43530 108.76771 1576 ft 15 kts 230°
2026-05-03 21:05 34.43453 108.76664 1576 ft 15 kts 229°
2026-05-03 21:05 34.43374 108.76555 1576 ft 15 kts 230°
2026-05-03 21:06 34.43293 108.76444 1576 ft 16 kts 229°
2026-05-03 21:06 34.43213 108.76333 1576 ft 13 kts 229°
2026-05-03 21:06 34.43222 108.76231 1576 ft 13 kts 317°
2026-05-03 21:06 34.43289 108.76146 1576 ft 11 kts 288°
2026-05-03 21:07 34.43305 108.76075 1576 ft 3 kts 287°
2026-05-03 21:07 34.43314 108.76039 1576 ft 5 kts 288°
2026-05-03 21:07 34.43322 108.76009 1576 ft 2 kts 288°
2026-05-03 21:07 34.43330 108.75980 1576 ft 3 kts 285°
2026-05-03 21:08 34.43332 108.75971 1576 ft 0 kts 286°